EW9741 Weather Reports


time (UTC)temp
C
wind
direction
speed
KPH
gust
KPH
rain 1hr
cm
rain 24hr
cm
rain mn
cm
humidity
%
barometer
mb
20260508220038 20 190 0.0 0.0 0.00 0.00 0.00 42 1008.4
20260508214535 20 190 0.0 0.0 0.00 0.00 0.00 41 1008.5
20260508213031 20 190 0.0 0.0 0.00 0.00 0.00 41 1008.6
20260508211538 20 190 0.0 0.0 0.00 0.00 0.00 40 1008.7
20260508210026 20 190 0.0 0.0 0.00 0.00 0.00 40 1008.9
20260508204524 20 190 0.0 0.0 0.00 0.00 0.00 39 1009.2
20260508203026 20 190 0.0 0.0 0.00 0.00 0.00 39 1009.4
20260508201521 20 190 0.0 17.7 0.00 0.00 0.00 39 1009.4
20260508200051 20 190 0.0 14.5 0.00 0.00 0.00 38 1009.7
20260508194554 20 190 0.0 19.3 0.00 0.00 0.00 39 1009.7
20260508193100 20 190 0.0 14.5 0.00 0.00 0.00 38 1009.8
20260508191547 20 190 0.0 17.7 0.00 0.00 0.00 38 1010.0
20260508190043 20 190 0.0 22.5 0.00 0.00 0.00 37 1010.3
20260508184543 20 190 0.0 20.9 0.00 0.00 0.00 39 1010.5
20260508183010 20 190 6.4 20.9 0.00 0.00 0.00 37 1010.7
20260508181509 20 190 1.6 11.3 0.00 0.00 0.00 37 1010.9
20260508180038 20 190 0.0 0.0 0.00 0.00 0.00 37 1011.2
20260508174538 20 190 0.0 11.3 0.00 0.00 0.00 38 1011.3
20260508173031 19 190 0.0 0.0 0.00 0.00 0.00 43 1011.6
20260508171535 19 190 0.0 22.5 0.00 0.00 0.00 43 1011.9
20260508170026 19 190 1.6 25.7 0.00 0.00 0.00 45 1012.2
20260508164524 19 190 1.6 19.3 0.00 0.00 0.00 43 1012.5
20260508163019 18 190 0.0 16.1 0.00 0.00 0.00 44 1012.6
20260508161517 18 190 0.0 14.5 0.00 0.00 0.00 44 1012.7
20260508160016 18 190 0.0 0.0 0.00 0.00 0.00 46 1013.1
20260508154513 17 190 4.8 19.3 0.00 0.00 0.00 46 1013.1
20260508153009 17 190 0.0 0.0 0.00 0.00 0.00 47 1013.4
20260508151509 16 190 0.0 0.0 0.00 0.00 0.00 47 1013.5
20260508150010 16 190 0.0 12.9 0.00 0.00 0.00 48 1013.6
20260508144502 16 190 0.0 0.0 0.00 0.00 0.00 49 1013.6
20260508143033 15 190 3.2 19.3 0.00 0.00 0.00 47 1013.8
20260508141533 15 190 0.0 12.9 0.00 0.00 0.00 52 1013.9
20260508140029 14 190 3.2 14.5 0.00 0.00 0.00 54 1014.0
20260508134529 13 190 0.0 11.3 0.00 0.00 0.00 56 1014.1
20260508133027 12 190 0.0 6.4 0.00 0.00 0.00 59 1014.1
20260508131530 11 190 0.0 12.9 0.00 0.00 0.00 60 1014.1
20260508130023 11 190 0.0 0.0 0.00 0.00 0.00 64 1013.9
20260508124522 11 190 0.0 3.2 0.00 0.00 0.00 65 1013.9
20260508123022 10 190 0.0 0.0 0.00 0.00 0.00 69 1013.8
20260508121521 8 190 0.0 0.0 0.00 0.00 0.00 70 1013.9
20260508120032 8 190 0.0 0.0 0.00 0.00 0.00 70 1013.9
20260508114520 8 190 0.0 0.0 0.00 0.00 0.00 71 1013.7
20260508111531 7 190 0.0 0.0 0.00 0.00 0.00 71 1013.5
20260508110027 7 190 0.0 0.0 0.00 0.00 0.00 71 1013.4
20260508104527 7 190 0.0 0.0 0.00 0.00 0.00 70 1013.3
20260508103022 8 190 0.0 0.0 0.00 0.00 0.00 70 1013.3
20260508101514 8 190 0.0 0.0 0.00 0.00 0.00 69 1013.3
20260508100013 8 190 0.0 0.0 0.00 0.00 0.00 68 1013.3
20260508094513 8 190 0.0 0.0 0.00 0.00 0.00 68 1013.2
20260508091550 7 190 0.0 0.0 0.00 0.00 0.00 68 1013.3
20260508090042 7 190 0.0 0.0 0.00 0.00 0.00 68 1013.3
20260508084539 7 190 0.0 0.0 0.00 0.00 0.00 68 1013.1
20260508083045 7 190 0.0 0.0 0.00 0.00 0.00 68 1013.1
20260508081545 7 190 0.0 0.0 0.00 0.00 0.00 68 1013.0
20260508080036 7 190 0.0 0.0 0.00 0.00 0.00 67 1013.1
20260508074540 7 190 0.0 0.0 0.00 0.00 0.00 67 1013.1
20260508073034 7 190 0.0 0.0 0.00 0.00 0.00 66 1013.1
20260508071505 7 190 0.0 0.0 0.00 0.00 0.00 66 1013.1
20260508070002 7 190 0.0 0.0 0.00 0.00 0.00 66 1013.1
20260508064559 8 190 0.0 0.0 0.00 0.00 0.00 64 1013.5
20260508063104 8 190 0.0 0.0 0.00 0.00 0.00 64 1013.6
20260508061606 8 190 0.0 0.0 0.00 0.00 0.00 64 1013.7
20260508060058 8 190 0.0 0.0 0.00 0.00 0.00 64 1013.8
20260508054556 8 190 0.0 0.0 0.00 0.00 0.00 66 1013.8
20260508053101 8 190 0.0 0.0 0.00 0.00 0.00 65 1013.8
20260508051605 8 190 0.0 0.0 0.00 0.00 0.00 65 1013.7
20260508050054 8 190 0.0 0.0 0.00 0.00 0.00 63 1013.7
20260508044548 8 190 0.0 0.0 0.00 0.00 0.00 63 1013.7
20260508043052 8 190 0.0 0.0 0.00 0.00 0.00 63 1013.6
20260508041546 8 190 0.0 0.0 0.00 0.00 0.00 64 1013.6
20260508040045 8 190 0.0 0.0 0.00 0.00 0.00 63 1013.5
20260508034548 8 190 0.0 0.0 0.00 0.00 0.00 63 1013.6
20260508033040 8 190 0.0 0.0 0.00 0.00 0.00 60 1013.7
20260508031537 9 190 0.0 0.0 0.00 0.00 0.00 57 1013.6
20260508030036 10 190 0.0 0.0 0.00 0.00 0.00 55 1013.7
20260508024504 10 190 0.0 0.0 0.00 0.00 0.00 55 1013.6
20260508023006 10 190 0.0 0.0 0.00 0.00 0.00 55 1013.5
20260508021500 9 190 0.0 0.0 0.00 0.00 0.00 59 1013.5
20260508020101 10 190 0.0 0.0 0.00 0.00 0.00 59 1013.5
20260508014559 10 190 0.0 0.0 0.00 0.00 0.00 58 1013.5
20260508013054 10 190 0.0 0.0 0.00 0.00 0.00 54 1013.5
20260508011522 11 190 0.0 0.0 0.00 0.00 0.00 47 1013.4
20260508010018 11 190 0.0 0.0 0.00 0.00 0.00 47 1013.3
20260508004511 12 190 0.0 0.0 0.00 0.00 0.00 46 1013.2
20260508003006 13 190 0.0 0.0 0.00 0.00 0.00 43 1013.1
20260508001502 13 190 0.0 0.0 0.00 0.00 0.00 39 1013.0
20260508000101 14 190 0.0 0.0 0.00 0.00 0.00 38 1013.0
20260507234558 15 190 0.0 0.0 0.00 0.00 0.00 36 1012.9
20260507233056 15 190 0.0 0.0 0.00 0.00 0.00 36 1012.9
20260507231558 15 190 0.0 0.0 0.00 0.00 0.00 36 1012.7
20260507230051 15 190 0.0 0.0 0.00 0.00 0.00 34 1012.8
20260507224549 15 190 0.0 0.0 0.00 0.00 0.00 35 1012.8
20260507223054 15 190 0.0 0.0 0.00 0.00 0.00 34 1012.8
20260507221547 16 190 0.0 0.0 0.00 0.00 0.00 35 1012.8